Location: Unspecified
(0.0000°N, 0.0000°E)
Time: 05:20:38
(UTC+02:00)

Tiros 1 despin weight - All Passes

Search period start: 25 May 2016 00:00
Search period end: 04 June 2016 00:00
Orbit: 596 x 645 km, 48.2° (Epoch: 24 May)

Date Brightness Start Highest point End Pass type
(mag) Time Alt. Az. Time Alt. Az. Time Alt. Az.
25 May - 01:08:43 10° WNW 01:10:00 11° NW 01:11:17 10° NNW night (unlit)
25 May - 11:32:40 10° NW 11:37:05 82° SW 11:41:30 10° SE daylight
25 May - 22:01:59 10° SSE 22:04:12 13° SE 22:06:27 10° ESE night (unlit)
25 May - 23:41:11 10° SW 23:45:42 49° NW 23:50:15 10° NNE night (unlit)
26 May - 10:09:41 10° N 10:12:55 20° NE 10:16:08 10° E daylight
26 May - 11:50:33 10° WNW 11:54:20 28° SW 11:58:07 10° S daylight
26 May - 22:17:16 10° SSW 22:21:30 34° SE 22:25:46 10° ENE night (unlit)
26 May - 23:59:43 10° W 00:02:59 19° NW 00:06:15 10° N night (unlit)
27 May - 10:25:50 10° NNW 10:30:11 55° NE 10:34:30 10° SE daylight
27 May - 12:11:10 10° SW 12:11:39 10° SW 12:12:08 10° SW daylight
27 May - 22:34:04 10° SW 22:38:45 85° NW 22:43:27 10° NE night (unlit)
28 May - 09:04:23 10° NNE 09:05:56 12° NE 09:07:29 10° ENE daylight
28 May - 10:43:07 10° NW 10:47:24 48° SW 10:51:40 10° SSE daylight
28 May - 21:11:03 10° S 21:14:32 21° SE 21:18:01 10° E visible
28 May - 22:51:52 10° WSW 22:55:59 31° NW 23:00:08 10° NNE night (unlit)
29 May - 09:19:18 10° NNW 09:23:15 31° NE 09:27:10 10° ESE daylight
29 May - 11:01:40 10° W 11:04:40 18° SW 11:07:39 10° S daylight
29 May - 21:27:14 10° SSW 21:31:47 55° SE 21:36:22 10° NE visible
29 May - 23:11:37 10° WNW 23:13:19 12° NW 23:15:01 10° NNW visible
30 May - 09:36:01 10° NW 09:40:29 88° SW 09:44:54 10° SE daylight
30 May - 20:05:40 10° SSE 20:07:32 12° SE 20:09:23 10° ESE daylight
30 May - 21:44:29 10° SW 21:49:01 52° NW 21:53:35 10° NNE visible
31 May - 08:13:09 10° N 08:16:17 19° NE 08:19:24 10° E daylight
31 May - 09:53:49 10° WNW 09:57:42 30° SW 10:01:35 10° S daylight
31 May - 20:20:42 10° SSW 20:24:50 32° SE 20:28:59 10° ENE visible
31 May - 22:02:54 10° W 22:06:17 20° NW 22:09:41 10° N visible
01 Jun - 08:29:12 10° NNW 08:33:33 51° NE 08:37:52 10° SE daylight
01 Jun - 10:13:45 10° WSW 10:15:01 11° SW 10:16:16 10° SSW daylight
01 Jun - 20:37:24 10° SW 20:42:03 89° SE 20:46:44 10° NE visible
02 Jun - 07:08:03 10° NNE 07:09:17 11° NE 07:10:31 10° ENE visible
02 Jun - 08:46:25 10° NW 08:50:46 52° SW 08:55:06 10° SSE daylight
02 Jun - 19:14:34 10° S 19:17:50 19° SE 19:21:08 10° E daylight
02 Jun - 20:55:08 10° WSW 20:59:18 32° NW 21:03:29 10° NNE visible
03 Jun - 07:22:41 10° N 07:26:36 29° NE 07:30:29 10° ESE visible
03 Jun - 09:04:51 10° W 09:08:01 19° SW 09:11:12 10° S daylight
03 Jun - 19:30:37 10° SSW 19:35:05 51° SE 19:39:37 10° NE daylight
03 Jun - 21:14:37 10° WNW 21:16:36 12° NW 21:18:35 10° NNW visible
